Terminal Aerodrome Forecast
Issued by NWS Albany, NY

Home | Current Version | Previous Version | Text Only | Print | Product List | Glossary On
Versions: 1 2 3 4 5 6 7 8 9 10 11 12 13 14 15 16 17 18 19 20 21
000
FTUS41 KALY 240500
TAFGFL
TAF
KGFL 240520Z 2406/2506 33007KT P6SM SCT028 BKN080
     FM241100 36008KT P6SM SCT050 SCT250
     FM241500 02008KT P6SM SCT050
     FM250200 VRB03KT P6SM SKC=

USA.gov is the U.S. government's official web portal to all federal, state and local government web resources and services.